Погода в Покровской

Россия / Санкт-Петербург и Ленинградская область     59°38′44″N   30°23′54″E
темп.,
°C
ветер,
м/с
пор.,
м/с
влажн.,
%
обл.,
%
осадки,
мм/ч
давл.,
гПа
погр.,
м
6 августа, пт
пт600:00+11ссв228676 0.0 101518
03:00+13с2477100 0.0 101599
06:00+13св2479100 0.0 1015150
09:00+16св496924 0.0 1014878
12:00+19всв695174 0.0 10141744
15:00+17св7106392 0.1 10131302
18:00+14св51078100 0.1 1013755
21:00+14всв4108398 0.1 1013577
7 августа, сб
сб700:00+13всв41189100 0.0 1012487
03:00+13всв51292100 0.0 1011528
06:00+14всв51290100 0.0 1010548
09:00+14всв51394100 0.3 1009609
12:00+15всв51296100 2.0 1008686
15:00+15в51297100 5.8 1007633
18:00+16в41198100 7.4 1006709
21:00+16в3899100 7.5 1006345
8 августа, вс
вс800:00+16в3699100 0.0 1007313
03:00+16юв2599100 0.1 1007178
06:00+14ююв379712 0.1 1008200
09:00+15ю3792100 0.1 1009334
12:00+20ю346654 0.0 1010980
15:00+18юз3574100 0.3 1012434
18:00+20ююз236917 0.0 1012664
21:00+16юв3486100 0.0 101371
9 августа, пн
пн900:00+15ююв2593100 0.0 101492
03:00+15ююв259597 0.0 101498
06:00+15юв269550 0.0 1014135
09:00+18юв398398 0.0 1013401
12:00+24ю585872 0.0 10121307
15:00+22юз577127 0.4 10131086
18:00+20ююз4878100 0.1 1014712
21:00+18ю37908 0.1 1015153
10 августа, вт
вт1000:00+16юз379716 0.0 1016166
03:00+15ююз259685 0.0 1017108
06:00+14ююз26966 0.0 1017131
09:00+19юз357170 0.0 1018492
12:00+23юз3453100 0.0 10181456
15:00+24юз2346100 0.0 10171848
18:00+22зсз3462100 0.0 1017391
21:00+18ссз227992 0.0 101723